This is the latest recevied weather packets stored in our database for station/object KD2ZLA. If no packets are shown the sender has not sent any weather packets the latest 10 day(s).
| Time | Temp. | Humidity | Pressure | Rain* | Wind** | Luminosity | Snow |
|---|---|---|---|---|---|---|---|
| 1777409007 | 20.56° C | 28% | 1012.7 hPa | 0 mm | - | 116 W/m² | - |
| 1777408705 | 20.56° C | 28% | 1013 hPa | 0 mm | - | 139 W/m² | - |
| 1777408401 | 20.56° C | 28% | 1013.2 hPa | 0 mm | - | 145 W/m² | - |
| 1777408100 | 20.56° C | 27% | 1013.1 hPa | 0 mm | - | 166 W/m² | - |
| 1777407796 | 20.56° C | 28% | 1013.5 hPa | 0 mm | - | 156 W/m² | - |
| 1777407492 | 20.56° C | 28% | 1013.4 hPa | 0 mm | - | 143 W/m² | - |
| 1777407187 | 20.56° C | 29% | 1013.4 hPa | 0 mm | - | 117 W/m² | - |
| 1777406882 | 20.56° C | 28% | 1013.2 hPa | 0 mm | - | 127 W/m² | - |
| 1777406577 | 20.56° C | 29% | 1013.3 hPa | 0 mm | - | 152 W/m² | - |
| 1777406274 | 21.11° C | 29% | 1013.4 hPa | 0 mm | - | 174 W/m² | - |
| 1777405973 | 21.11° C | 29% | 1013.5 hPa | 0 mm | - | 184 W/m² | - |
| 1777405669 | 21.11° C | 29% | 1013.4 hPa | 0 mm | - | 187 W/m² | - |
| 1777405366 | 21.11° C | 29% | 1013.5 hPa | 0 mm | - | 261 W/m² | - |
| 1777405062 | 21.11° C | 29% | 1013.7 hPa | 0 mm | - | 273 W/m² | - |
| 1777404757 | 20.56° C | 30% | 1013.7 hPa | 0 mm | - | 305 W/m² | - |
| 1777404453 | 20.56° C | 28% | 1013.8 hPa | 0 mm | - | 247 W/m² | - |
| 1777404149 | 20.56° C | 29% | 1013.9 hPa | 0 mm | - | 224 W/m² | - |
| 1777403846 | 20.56° C | 29% | 1014 hPa | 0 mm | - | 226 W/m² | - |
| 1777403541 | 20.56° C | 27% | 1014.1 hPa | 0 mm | - | 241 W/m² | - |
| 1777403241 | 20.56° C | 28% | 1014.2 hPa | 0 mm | - | 247 W/m² | - |
| 1777402936 | 21.11° C | 28% | 1014.1 hPa | 0 mm | - | 288 W/m² | - |
| 1777402631 | 21.11° C | 28% | 1014 hPa | 0 mm | - | 320 W/m² | - |
| 1777402330 | 20.56° C | 28% | 1014 hPa | 0 mm | - | 292 W/m² | - |
| 1777402029 | 20.56° C | 28% | 1014.1 hPa | 0 mm | - | 286 W/m² | - |
| 1777401728 | 20.56° C | 28% | 1014.1 hPa | 0 mm | - | 300 W/m² | - |
* Rain latest hour (hover to see other rain measurements)
** Current wind speed in m/s (hover to see current wind gust speed)